Flag for U.S.A. Weather past 2 weeks in Oklahoma City, Oklahoma, U.S.A.

Now
85 °F

Broken clouds.


Feels Like: 87 °F
Forecast: 68 / 87 °F
Wind: 10 mph from South

Location: Will Rogers World Airport

Current Time: Sep 20, 2014 at 3:46:33 PM

Latest Report: Sep 20, 2014 at 2:52 PM


Visibility: 10 mi

Pressure: 29.95 "Hg

Humidity: 53%

Dew point: 66 °F

Location of Oklahoma CityLocation

Historic Weather in Oklahoma City — Graph

°F

Oklahoma City temperature yesterday

Maximum temperature yesterday: 87 °F (at 3:52 PM)
Minimum temperature yesterday: 66 °F (at 3:52 AM)
Average temperature yesterday: 75 °F

Past Weeks' High & Low Weather Summary

 TemperatureHumidityPressure
High95 °F (Sep 5, 4:52 PM)100% (Sep 6, 8:04 AM)30.36 "Hg (Sep 6, 8:04 AM)
Low50 °F (Sep 13, 3:52 AM)13% (Sep 9, 9:52 PM)29.69 "Hg (Sep 10, 2:52 AM)
Average72 °F72%30.03 "Hg
* Reported Sep 5 1:54 PM — Sep 20 1:52 PM, Oklahoma City, Weather by CustomWeather, © 2014

Note: Actual official high and low records may vary slightly from our data, if they occured in-between our weather recording intervals... More about our weather records

Advertising

Oklahoma City weather history for previous 24 hours

 ConditionsComfort  
Time TempWeatherWind HumidityBarometerVisibility
1:52 PM
Sep 20
84 °FBroken clouds.8 mph57%29.98 "Hg10 mi
12:52 PM85 °FBroken clouds.8 mph57%30.00 "Hg10 mi
7:52 AM70 °FFog.5 mph93%29.97 "Hg3 mi
6:52 AM69 °FFog.5 mph93%29.95 "Hg4 mi
5:52 AM70 °FFog.7 mph90%29.95 "Hg4 mi
4:52 AM70 °FFog.6 mph93%29.94 "Hg5 mi
3:52 AM70 °FFog.6 mph90%29.94 "Hg6 mi
2:52 AM69 °FPartly cloudy.6 mph90%29.94 "Hg7 mi
1:52 AM70 °FPassing clouds.5 mph90%29.94 "Hg8 mi
12:52 AM72 °FPassing clouds.8 mph84%29.93 "Hg10 mi
11:52 PM
Sep 19
72 °FPassing clouds.8 mph81%29.94 "Hg10 mi
10:52 PM74 °FPassing clouds.9 mph76%29.94 "Hg10 mi
9:52 PM74 °FClear.8 mph76%29.94 "Hg10 mi
8:52 PM77 °FPassing clouds.8 mph69%29.92 "Hg10 mi
7:52 PM77 °FScattered clouds.7 mph66%29.91 "Hg10 mi
6:52 PM83 °FPassing clouds.9 mph55%29.90 "Hg10 mi
5:52 PM85 °FScattered clouds.14 mph48%29.89 "Hg10 mi
4:52 PM86 °FScattered clouds.13 mph46%29.89 "Hg10 mi
3:52 PM87 °FScattered clouds.12 mph45%29.90 "Hg10 mi
Weather by CustomWeather, © 2014

See weather overviewHow to use our weather pages